Theta_e
325 326 327 336 338 339 341 343 343 344 344 344 345 346 347 347 347 347 348 347 348 348 348 348 348 347 347 346 348 349 349 347 348 347 348 347 347 347 348 348 349 349 349 349 349 349 349 350 350 350 351 351 351 351 350 349 348 348 348 347 348 348 348 348 347 347 348 348 349 349 349 349 349 348 351 354 352 354 355 354 353 349 348 349 354
323 325 327 330 337 338 339 340 341 342 342 342 343 344 345 345 346 346 346 347 347 348 348 348 347 348 347 347 348 348 348 347 346 347 346 347 347 347 347 348 348 348 349 348 348 349 349 349 349 349 350 350 350 350 350 349 349 348 348 348 347 347 347 347 347 347 348 348 348 348 347 348 348 349 350 354 354 354 355 353 352 348 344 354 354
325 326 327 330 335 336 337 338 339 340 340 340 341 342 342 343 344 345 346 346 346 347 347 346 347 347 347 346 347 347 347 347 347 347 347 347 347 347 347 347 347 347 348 349 348 346 346 347 348 347 349 348 348 349 349 349 349 349 349 348 348 348 347 347 347 347 348 348 347 346 345 344 345 346 348 354 354 354 354 352 352 351 347 354 354
324 325 326 329 336 336 335 336 337 337 338 338 340 341 340 341 342 343 343 344 344 345 346 346 347 347 346 346 346 346 346 346 347 347 346 346 345 344 345 346 347 347 347 346 346 348 347 346 346 346 347 346 347 348 348 348 348 348 348 349 348 349 348 347 347 346 347 346 346 344 342 339 339 344 354 354 354 354 353 352 351 353 353 354 354
324 325 324 324 325 334 334 335 335 335 336 337 339 339 339 339 339 340 340 341 341 342 343 343 343 344 343 343 343 344 343 344 344 345 344 343 343 342 342 343 345 346 346 347 346 347 346 345 346 347 345 345 345 346 346 347 347 346 346 347 347 346 344 342 341 341 342 343 344 342 340 340 338 348 354 354 354 353 352 352 353 353 352 353 353
323 324 324 323 323 327 333 333 334 334 334 336 337 337 337 337 337 337 338 339 339 339 340 340 340 341 341 341 341 341 341 341 341 342 342 341 340 340 340 341 342 343 344 345 345 345 345 346 346 344 342 342 342 343 343 345 345 345 344 344 344 342 341 339 339 340 341 342 341 339 340 338 335 347 347 345 352 353 353 353 352 353 352 352 352
322 322 323 322 323 327 333 332 333 332 333 335 336 336 336 335 335 335 336 337 337 337 337 338 338 338 338 338 338 338 339 339 338 339 339 338 338 337 337 338 340 340 342 342 342 343 343 343 342 342 339 338 338 339 340 342 342 342 342 340 340 340 339 337 337 339 339 340 338 339 339 339 336 337 348 347 346 351 352 351 351 351 352 351 351
321 321 321 321 323 330 333 332 332 332 332 333 334 334 334 334 334 334 334 334 335 335 335 335 335 335 335 335 335 335 336 336 336 336 336 336 336 335 334 335 336 338 339 340 340 340 339 339 339 338 336 334 334 335 335 337 338 339 338 337 337 337 334 332 336 337 337 337 337 337 337 338 337 337 348 347 346 349 351 349 349 348 348 351 349
319 320 321 320 323 331 331 330 331 332 332 332 332 332 332 332 332 332 333 333 333 333 333 333 333 332 332 332 332 332 332 333 333 333 332 332 331 331 331 331 331 333 334 335 336 336 335 335 335 334 333 331 330 331 331 332 333 333 334 334 333 332 328 328 333 333 332 333 335 336 337 338 338 337 348 347 347 349 349 348 348 349 350 349 349
317 317 318 318 320 331 330 331 331 331 331 331 331 331 331 330 330 330 330 330 330 330 330 330 330 329 329 329 329 329 329 329 329 329 329 328 328 328 328 328 328 328 329 330 331 331 331 331 331 330 329 329 328 328 327 327 329 328 328 329 329 327 324 324 328 326 325 328 331 334 336 343 338 337 346 347 347 348 348 346 345 344 347 348 347
316 316 316 316 319 329 329 329 329 329 329 329 329 329 329 329 328 328 328 328 328 328 328 328 328 328 327 327 326 326 326 327 327 326 326 326 326 326 326 326 326 326 326 327 329 329 329 328 328 328 327 327 326 325 325 324 325 326 325 325 324 323 322 322 322 317 320 325 328 330 334 340 337 336 346 346 346 348 348 347 345 345 348 349 349
315 315 314 316 326 328 327 327 327 327 327 327 328 328 327 327 326 326 326 326 326 326 326 326 326 326 325 325 324 325 325 325 325 326 326 326 325 325 325 325 325 325 324 325 325 326 326 326 325 325 324 324 324 324 323 323 323 324 324 323 323 321 321 319 315 312 316 322 324 328 328 331 335 338 347 346 346 345 348 348 347 347 347 347 348
313 313 313 313 317 326 326 326 326 327 327 326 326 326 326 326 325 325 324 324 324 324 325 324 324 324 323 323 324 324 324 324 324 325 325 323 323 323 324 324 324 324 324 324 324 325 324 324 324 323 323 323 322 322 321 322 323 322 321 322 321 321 320 319 311 310 314 317 320 323 326 328 333 341 344 346 346 345 345 346 347 347 346 347 347
312 312 312 313 315 324 325 325 326 326 326 325 325 326 325 325 324 324 323 323 323 323 323 323 323 323 322 322 321 321 321 322 321 322 323 322 321 321 322 322 322 322 322 322 322 322 322 323 322 322 322 322 321 321 321 320 320 320 320 319 320 319 319 316 315 309 309 310 316 320 324 329 331 341 344 345 345 345 345 345 346 345 346 347 347
310 310 311 312 312 315 323 324 325 324 324 324 324 323 324 323 323 323 322 321 320 320 320 321 321 321 321 321 320 319 318 318 319 320 320 321 320 320 320 320 321 321 320 320 321 321 321 321 321 320 321 320 320 320 320 320 319 318 319 318 318 318 317 312 312 309 308 311 312 318 323 327 337 342 343 344 345 345 345 345 345 345 346 346 346
310 309 310 309 309 311 314 320 322 322 321 322 322 322 322 322 322 322 321 320 320 319 319 318 318 318 318 318 317 317 316 316 316 317 317 318 319 318 318 319 319 319 319 319 320 320 320 320 320 320 319 318 319 319 319 318 317 317 316 316 316 317 317 317 310 308 307 309 315 321 325 329 334 339 342 344 345 345 344 344 344 344 344 344 345
308 309 307 307 307 307 310 311 316 319 319 319 319 320 320 320 320 320 319 319 318 318 317 317 316 315 315 314 315 315 314 314 313 313 314 315 316 316 316 317 317 318 317 318 318 318 318 318 318 318 317 317 317 317 315 317 316 314 314 315 315 316 316 316 308 308 308 313 314 316 321 324 327 333 337 340 341 343 343 343 343 343 343 344 344
306 306 306 306 305 306 307 309 309 309 309 314 317 317 318 318 318 317 317 317 317 316 315 314 314 313 311 311 311 311 311 312 312 311 311 311 312 314 314 314 315 316 315 315 316 316 316 316 316 315 315 315 315 314 315 315 314 313 313 313 314 313 313 309 303 304 306 312 308 313 314 323 325 329 331 333 334 336 338 338 339 339 340 343 342
302 304 305 304 304 303 305 304 305 304 304 304 305 312 315 315 315 314 314 313 313 312 312 311 310 310 310 309 308 307 307 307 308 308 308 308 308 309 311 311 313 314 313 313 314 314 313 314 315 313 313 312 312 312 313 313 312 312 311 312 311 310 309 305 302 303 305 305 308 307 311 320 323 327 328 329 329 331 331 331 332 332 334 336 338
299 301 302 302 302 301 302 302 302 302 301 301 303 305 312 312 313 313 312 312 311 309 308 307 307 308 307 308 305 302 303 303 305 304 305 305 306 306 309 309 310 311 310 311 312 312 311 312 312 311 311 310 309 309 309 311 311 310 310 311 309 307 300 300 301 302 303 304 309 304 316 318 320 323 324 325 325 326 326 327 328 329 329 331 333
300 298 299 299 299 299 301 301 301 301 300 300 301 302 307 311 310 310 310 309 309 308 307 307 306 305 304 306 303 297 296 296 297 298 305 301 304 307 306 307 308 308 307 309 310 309 310 310 310 309 308 308 306 307 307 309 309 309 309 309 306 299 300 300 300 301 302 302 306 305 314 315 317 320 322 323 323 324 324 325 327 328 329 331 331
297 297 298 298 298 299 300 300 300 299 299 300 301 301 303 304 300 301 302 305 307 307 303 301 306 298 306 300 298 298 295 295 297 304 300 302 302 307 305 305 306 306 305 306 308 308 308 308 308 307 306 306 305 298 299 303 306 308 308 307 299 298 299 299 299 299 301 300 305 308 312 314 316 318 320 321 322 322 322 323 324 324 325 327 328
296 296 297 298 298 299 299 299 299 299 299 298 299 300 299 298 298 298 301 305 303 301 299 299 296 297 296 297 298 297 295 296 297 300 301 305 303 304 303 303 303 303 303 303 304 305 305 305 306 304 304 302 296 294 295 295 296 303 302 298 297 298 298 298 298 298 299 301 301 309 310 313 315 316 319 320 320 319 319 320 321 322 322 324 324
296 296 297 298 298 298 298 299 299 299 298 298 299 298 298 297 296 297 298 298 297 298 296 296 296 296 296 296 295 297 295 296 305 304 301 294 296 302 302 301 301 301 301 298 300 302 303 302 303 302 299 295 293 293 294 294 294 295 296 296 296 297 297 297 297 297 298 301 301 309 309 311 313 315 317 318 319 319 319 320 321 321 322 323 324
296 296 297 297 297 298 297 298 299 299 298 298 298 297 297 296 295 296 296 296 296 296 296 296 295 295 295 296 295 296 295 294 294 294 292 293 292 292 292 292 292 292 298 291 291 292 293 292 292 294 291 292 292 292 293 292 292 293 294 294 295 296 296 296 297 297 297 297 300 308 307 309 311 313 315 317 318 318 319 320 320 321 321 322 323
296 295 296 297 297 298 297 298 298 298 298 298 297 298 297 295 295 296 296 296 296 295 295 295 295 294 294 295 296 294 294 293 293 292 292 292 291 291 291 291 290 291 293 290 290 290 290 290 291 291 291 291 291 291 292 293 291 292 292 292 293 295 294 294 295 295 296 297 299 306 307 307 309 311 313 316 316 317 318 319 320 320 321 322 322
295 296 296 297 297 297 297 298 298 298 298 298 297 298 296 295 295 296 295 295 295 294 294 293 294 294 293 295 293 292 292 291 291 291 291 292 291 290 290 290 290 289 291 290 289 289 289 289 290 290 290 290 290 290 290 291 291 291 291 291 292 293 292 292 292 293 294 295 298 304 306 305 307 309 312 314 316 317 317 318 319 320 320 321 322
295 295 295 296 297 297 297 297 297 298 297 297 296 297 295 295 295 299 296 297 295 294 293 292 294 292 293 295 294 291 291 290 291 290 291 291 291 291 290 290 290 289 291 290 289 288 288 289 290 289 290 290 290 290 290 290 290 290 290 291 291 291 291 291 291 292 292 292 294 299 303 304 304 306 309 311 313 315 316 317 318 319 320 320 321
294 295 295 295 296 297 297 297 297 297 297 297 296 296 295 295 296 295 294 299 294 293 293 293 292 293 293 293 293 291 290 290 290 290 290 290 290 290 289 289 289 289 289 288 289 288 288 288 289 289 289 289 289 289 290 289 289 290 290 290 290 290 290 290 290 290 290 291 291 295 301 302 303 304 306 309 310 312 313 315 316 317 318 319 319
295 295 295 295 296 297 297 297 297 297 297 296 295 295 295 295 294 294 294 297 293 293 293 292 291 291 291 292 293 291 290 290 289 289 289 289 289 289 289 289 288 288 288 288 289 288 288 288 288 289 289 288 288 289 289 288 289 289 289 289 290 289 290 290 290 290 290 290 291 292 299 300 301 303 304 306 308 310 312 313 314 315 316 317 318
296 295 295 295 296 296 296 297 297 298 297 295 294 295 294 294 294 293 294 294 293 293 293 291 291 291 291 291 292 292 290 290 289 288 288 288 288 289 289 289 287 287 288 288 288 289 288 288 288 288 288 288 288 288 288 288 288 288 288 288 289 289 289 289 290 290 289 289 289 290 293 298 299 301 302 304 306 308 309 311 312 313 314 315 316
295 295 295 295 296 296 296 296 297 297 297 295 295 294 294 294 294 292 293 293 293 292 291 291 291 291 291 291 290 291 292 290 289 289 289 288 288 288 288 288 286 287 288 287 288 288 288 288 288 289 288 288 287 287 288 287 287 287 287 287 288 288 288 288 288 288 289 289 289 290 290 293 297 300 301 303 305 306 307 308 309 310 312 314 315
296 296 295 295 295 296 296 296 296 297 296 294 295 295 294 294 293 292 292 294 292 292 291 291 290 291 291 290 290 291 291 290 289 290 291 287 287 287 288 288 287 287 287 288 288 287 287 287 287 288 287 288 287 286 288 287 286 286 286 287 287 287 288 287 287 287 288 288 288 289 289 291 292 297 299 301 303 305 306 307 307 309 311 312 313
296 296 295 295 296 297 297 296 296 296 296 295 295 294 294 294 293 292 293 292 292 291 291 290 291 291 291 290 289 291 290 289 289 288 287 287 287 287 286 286 286 287 287 287 286 286 286 286 287 286 289 287 285 286 286 285 285 285 286 286 286 286 286 287 287 287 287 287 288 288 289 289 290 291 293 299 302 303 305 306 306 308 309 310 310
296 295 294 295 296 296 297 295 296 295 296 294 294 294 294 294 292 292 292 292 291 291 290 290 290 290 290 289 289 290 289 289 289 287 287 286 286 286 286 286 287 286 285 286 286 286 286 285 287 286 285 285 285 286 286 284 285 285 285 286 286 286 286 286 287 287 287 287 287 288 289 289 290 291 292 291 295 300 303 305 306 307 308 308 308
296 296 295 295 294 295 296 295 295 294 294 294 294 294 294 293 292 294 292 291 291 290 290 290 290 290 290 289 289 290 289 288 288 287 286 286 285 285 285 286 286 285 285 286 286 285 285 286 286 285 284 283 285 284 284 284 284 284 285 285 285 287 286 286 286 286 286 287 287 288 288 289 290 290 294 292 292 295 301 304 305 306 306 306 306
297 295 294 294 294 294 295 294 294 294 294 294 293 293 293 292 292 292 292 291 290 290 289 290 290 289 289 289 289 290 288 288 288 287 286 286 285 285 285 286 286 284 284 284 284 287 285 287 285 287 284 283 283 283 283 283 283 284 284 285 285 286 285 285 285 286 287 286 287 287 288 289 290 294 292 292 292 293 297 302 304 305 306 306 304
297 296 295 294 294 294 294 294 294 294 293 294 293 293 292 292 291 291 292 290 290 289 289 289 289 289 289 289 289 289 289 288 287 287 286 286 285 285 285 285 285 284 284 284 284 284 284 284 283 283 284 283 282 282 282 283 284 284 284 284 285 284 285 285 285 288 286 286 286 286 287 288 289 290 291 291 292 292 293 297 301 303 303 303 302
297 295 295 294 294 293 293 293 293 293 293 293 292 292 291 290 289 290 290 289 289 289 289 289 288 289 289 289 289 289 289 288 287 287 286 286 285 285 285 285 285 284 284 283 283 285 285 283 283 282 284 283 282 283 283 283 284 284 284 284 284 284 285 285 286 285 284 285 286 290 290 290 290 290 291 291 291 292 293 293 292 292 292 301 302
296 295 295 294 293 293 292 293 293 293 292 292 292 291 290 290 289 289 288 289 289 289 289 289 288 288 289 289 288 288 288 288 287 286 286 286 284 284 284 285 284 284 283 283 283 282 283 283 282 283 282 283 284 283 283 282 282 282 283 284 284 284 283 284 284 283 285 285 285 286 287 288 288 287 286 287 287 289 291 290 290 289 291 295 299
295 294 294 293 293 293 292 292 292 292 292 292 291 291 290 288 288 289 289 289 289 289 288 288 288 288 289 289 288 288 288 287 287 286 285 287 285 284 284 284 284 284 284 283 282 282 282 283 283 283 283 281 281 282 282 282 281 280 281 281 282 282 284 285 283 284 284 285 284 283 283 283 283 283 284 285 286 287 288 288 288 289 289 289 291
294 294 294 293 293 292 292 292 292 292 292 292 292 291 291 290 290 289 289 289 289 289 288 288 288 289 289 288 288 287 288 287 287 286 286 285 284 283 284 283 284 284 284 283 282 286 285 282 283 281 282 282 280 282 283 282 279 278 278 279 280 281 282 283 282 282 282 283 283 283 283 283 283 284 285 286 286 286 286 287 288 289 288 289 290
294 294 294 293 292 292 292 292 292 292 292 292 292 291 291 290 290 289 289 288 288 289 288 288 289 288 288 288 288 287 287 287 287 286 285 285 284 283 284 283 283 284 282 282 282 281 281 282 281 281 280 280 282 283 282 282 278 279 279 278 276 277 281 280 280 282 283 283 282 282 283 283 284 284 284 284 284 284 286 287 287 287 287 287 288
294 293 293 293 293 293 292 292 292 292 292 292 292 291 291 289 288 289 288 288 288 289 288 287 287 287 287 288 287 287 287 286 286 286 286 285 284 284 283 282 283 283 282 281 281 280 281 281 281 282 281 278 278 278 283 281 280 279 275 277 275 276 275 275 278 281 282 281 281 281 282 283 283 283 283 283 284 285 286 285 285 286 286 287 288
293 293 293 293 294 293 292 292 292 292 292 292 292 290 290 288 288 288 288 287 287 286 286 285 286 287 287 286 287 287 287 286 286 286 286 284 284 283 283 283 282 282 282 281 280 281 281 281 281 281 280 279 278 278 280 281 280 281 278 276 275 274 274 275 278 279 279 280 282 282 282 282 282 282 283 283 284 284 284 284 285 285 286 286 286
293 294 294 294 294 293 293 292 292 292 291 291 291 290 290 289 288 287 286 286 285 285 285 286 286 286 287 287 286 287 287 286 286 285 285 285 284 283 283 282 282 282 282 281 281 280 280 280 281 280 280 280 279 279 277 280 282 282 281 279 279 276 274 276 276 274 278 281 281 281 281 280 281 282 282 283 283 283 284 284 285 285 285 285 286
294 294 294 294 294 293 293 292 292 292 292 291 291 291 289 289 289 288 288 287 286 287 287 288 287 287 287 286 286 286 286 286 285 285 285 285 284 283 283 282 282 282 283 281 280 280 281 280 281 280 280 283 280 278 277 278 278 279 281 280 280 281 279 277 274 277 274 276 277 278 279 281 281 282 282 282 283 283 283 284 283 284 284 285 285
294 293 293 293 293 293 292 292 292 292 292 291 291 291 290 289 288 288 288 287 287 287 287 287 287 287 286 286 286 286 285 286 285 284 284 284 284 283 283 282 282 281 282 281 280 280 281 281 281 280 280 281 279 278 277 278 277 277 281 279 278 279 278 278 278 276 275 274 275 278 279 280 281 281 281 282 282 282 282 282 283 283 284 284 285
293 293 293 293 293 293 292 292 292 291 291 291 291 290 291 290 289 288 287 288 287 287 287 287 286 286 285 285 285 285 285 285 285 284 284 284 284 283 282 282 281 281 283 281 280 281 280 279 279 279 279 279 279 279 278 277 277 277 277 276 277 276 276 277 277 276 275 274 274 275 276 278 279 280 281 281 281 282 282 282 283 283 284 283 283
293 293 292 292 292 292 292 291 291 291 291 290 291 290 290 290 289 288 287 287 286 285 286 285 285 285 285 284 285 284 284 284 284 284 283 283 283 282 282 281 281 281 282 280 280 280 280 279 279 279 279 279 279 279 279 278 278 277 277 277 277 276 275 276 275 275 275 275 274 274 276 275 275 277 279 280 280 281 281 282 282 282 282 282 282
292 292 292 292 292 292 291 291 291 292 291 290 290 290 290 290 289 288 288 287 286 285 285 285 285 284 284 284 284 284 284 284 283 283 283 283 282 282 281 281 281 282 282 280 280 279 279 279 279 279 279 278 278 278 280 280 279 278 277 277 276 277 275 275 275 275 275 274 274 274 275 276 275 275 277 279 280 280 281 281 281 281 281 281 282
Wind_Speed
1 4 2 3 7 7 9 10 10 11 11 10 10 12 13 14 14 14 14 13 13 13 14 14 14 12 12 9 12 11 12 11 12 12 12 11 10 10 9 9 8 8 9 9 9 9 9 8 9 9 9 10 11 11 11 11 11 10 10 10 11 11 11 11 12 10 9 10 10 11 11 11 11 10 8 6 4 5 4 5 4 2 2 3 7
3 2 1 2 7 8 8 9 10 11 11 10 10 10 11 12 12 13 13 14 14 14 14 14 14 14 14 11 13 14 13 13 12 14 14 14 14 13 11 13 12 11 11 11 11 10 9 9 10 10 12 11 12 11 12 12 11 11 11 11 11 11 11 11 12 11 11 11 11 11 10 10 10 10 8 5 4 7 5 5 5 3 2 5 7
4 3 1 2 6 8 8 9 9 10 10 10 9 10 11 12 11 12 12 12 13 14 15 14 14 15 14 13 15 15 15 14 15 16 15 15 16 15 15 15 14 13 14 13 12 12 10 12 12 12 13 13 13 13 13 13 13 13 12 12 12 12 12 12 12 11 11 11 11 12 10 8 8 8 9 2 4 6 6 6 5 4 4 7 7
5 3 1 3 4 7 8 9 9 9 10 9 10 10 11 11 11 11 11 11 12 13 14 15 15 15 15 14 14 14 13 14 15 15 16 15 14 14 14 15 15 14 14 14 12 14 14 12 13 14 15 14 14 13 13 13 14 15 16 16 16 16 15 14 14 12 11 12 11 11 4 4 6 7 2 4 6 6 6 5 4 6 8 7 8
7 3 3 3 2 5 8 9 9 9 9 8 9 11 12 11 11 11 10 10 10 11 12 12 13 13 14 13 13 12 12 11 13 13 12 13 14 14 13 14 14 14 14 14 13 14 14 14 14 16 16 15 15 14 14 14 14 14 14 15 15 15 15 14 14 14 12 11 11 8 5 4 5 3 6 7 7 6 5 5 6 8 7 8 9
6 4 3 3 2 2 8 9 9 9 8 8 10 11 12 12 11 11 11 11 10 10 11 11 12 12 13 13 13 13 12 12 12 12 13 13 14 14 14 13 14 13 14 15 15 15 13 14 17 16 15 14 14 13 13 14 14 14 14 14 14 14 13 13 13 14 13 11 9 5 6 5 2 3 5 8 9 6 6 6 8 9 10 11 10
7 4 4 3 1 3 8 9 10 9 8 9 10 11 11 12 11 11 11 12 11 11 11 12 12 13 13 13 13 13 13 12 13 13 14 14 14 13 13 13 12 12 12 13 13 15 15 14 14 14 13 13 13 13 13 12 13 13 13 13 12 12 12 13 13 12 13 8 5 5 5 5 2 3 7 8 6 7 8 9 9 10 9 9 9
6 5 4 2 1 4 9 10 10 10 10 10 10 11 12 12 11 12 12 12 12 12 12 12 12 13 14 14 14 14 14 13 13 13 13 14 14 13 13 13 12 12 13 13 13 13 13 14 14 13 12 12 11 12 11 11 12 11 11 11 11 12 13 13 12 11 11 6 6 6 5 4 3 3 6 7 6 7 8 9 8 9 9 9 6
6 5 5 3 2 7 9 10 11 11 11 11 11 11 12 12 12 13 13 13 13 13 12 12 13 13 14 14 14 14 14 14 14 13 13 13 13 13 13 13 12 12 12 12 12 12 12 12 12 12 11 11 11 11 11 10 10 10 10 10 11 12 13 13 12 10 6 5 6 6 6 5 5 4 5 9 8 6 8 5 5 7 8 8 5
5 5 4 3 3 7 9 11 11 11 11 11 12 12 12 12 12 13 13 13 13 13 13 13 13 13 14 14 14 14 14 14 14 14 13 13 13 13 13 13 13 12 12 12 12 12 12 12 11 11 11 11 11 10 10 10 10 10 9 10 10 11 12 13 13 8 5 4 6 6 6 10 4 3 6 9 7 6 5 4 4 4 4 7 8
7 5 3 3 4 9 11 11 11 11 11 11 11 12 12 12 12 12 13 13 13 13 13 13 13 13 14 14 14 14 14 13 13 13 13 12 12 12 13 13 13 13 13 13 12 13 13 12 12 12 11 11 11 11 11 11 10 10 10 10 10 10 11 12 10 6 6 6 5 5 6 10 5 4 9 11 7 6 4 4 5 6 7 8 9
7 5 3 2 7 10 11 11 11 11 11 11 11 12 12 12 12 12 12 13 13 13 13 13 13 13 13 13 13 13 13 13 13 13 13 13 12 12 12 13 13 13 13 13 13 13 13 13 12 12 12 11 11 11 11 11 11 11 11 11 11 11 11 11 6 6 6 6 6 6 5 5 5 6 13 10 9 5 4 6 7 8 9 9 10
8 6 4 4 4 10 12 12 12 12 12 11 12 12 12 12 12 12 12 12 13 13 13 13 13 13 13 13 13 13 13 13 13 13 13 13 13 13 13 13 13 13 13 13 13 13 13 13 13 13 13 12 12 12 12 11 11 11 11 11 12 12 12 11 4 5 5 6 6 7 6 5 5 9 12 11 10 9 8 8 8 8 8 8 8
9 7 5 5 4 9 12 13 12 12 12 12 11 12 12 12 13 13 13 13 13 13 13 13 13 13 13 13 13 13 13 13 13 13 13 13 13 13 13 13 13 13 13 13 13 13 13 13 13 13 13 13 13 12 12 12 12 12 12 13 12 13 14 8 6 4 4 5 6 6 6 5 5 11 12 11 10 9 9 8 9 9 9 8 8
11 9 7 5 4 4 11 12 12 12 12 12 12 11 12 12 13 13 13 13 13 13 13 13 13 13 14 14 14 14 14 14 13 13 13 13 13 13 13 13 13 13 13 13 13 13 13 13 13 13 13 13 12 12 12 12 12 13 13 14 13 13 13 6 5 4 4 4 5 6 6 5 10 13 12 12 11 10 10 10 11 11 11 11 10
10 9 7 5 4 4 4 9 12 12 12 12 11 12 12 12 13 13 13 13 13 13 13 13 14 14 14 14 14 14 14 14 14 14 13 13 13 14 14 14 14 14 15 15 15 15 15 15 14 14 14 13 12 12 11 12 12 13 13 14 14 14 14 8 5 4 5 5 5 4 5 5 14 13 13 12 13 12 12 12 13 13 12 12 12
9 8 8 6 5 4 4 4 7 12 11 11 11 11 12 12 13 13 13 13 13 13 13 13 13 14 14 13 13 13 13 14 15 15 14 14 14 15 15 15 15 15 16 17 17 17 17 17 17 16 16 15 15 14 14 13 13 13 14 15 16 14 12 9 6 5 6 5 4 4 4 5 12 13 14 14 14 14 14 15 14 14 14 14 14
7 8 8 7 5 5 4 4 6 6 5 7 9 11 11 12 13 13 13 13 13 13 13 13 13 13 13 13 13 12 13 13 14 15 16 15 15 15 16 17 17 16 16 17 17 17 18 18 18 18 18 17 17 17 16 15 15 15 15 16 15 14 12 11 6 6 7 6 6 5 5 9 15 13 14 14 14 14 14 15 16 16 16 15 15
7 8 8 8 7 6 6 5 6 5 6 4 4 6 11 12 13 13 13 14 13 13 13 12 12 12 12 13 13 12 12 12 13 14 15 15 14 13 15 16 16 15 15 15 15 15 16 16 16 17 18 18 18 18 17 17 16 16 16 16 13 11 11 8 6 7 7 7 6 7 7 15 14 14 14 15 15 15 15 16 15 15 16 16 15
6 8 9 8 8 8 7 6 7 6 5 5 4 4 8 11 12 13 13 13 13 13 12 11 9 8 9 10 11 8 8 7 10 7 11 12 11 8 12 13 14 13 14 14 14 14 14 15 15 15 16 17 17 17 18 18 17 17 17 15 12 10 7 6 6 6 6 7 7 7 11 16 15 15 14 15 15 15 15 16 16 16 15 15 15
5 7 8 9 9 9 9 7 7 7 6 5 4 4 5 9 8 11 12 12 12 11 10 8 6 6 5 8 9 6 4 4 4 3 4 2 5 5 9 11 13 13 14 14 14 14 14 14 15 15 15 15 15 13 13 15 16 17 17 14 11 7 6 6 6 6 6 6 6 6 14 14 14 14 13 14 14 14 14 14 15 15 15 15 14
8 8 7 9 9 9 9 8 7 9 8 6 5 4 4 6 5 5 5 6 8 7 5 4 4 4 7 6 5 4 3 3 2 3 1 1 1 3 10 12 13 13 14 14 14 14 14 15 15 16 16 15 14 7 7 8 11 13 12 11 7 6 6 7 6 6 5 6 5 8 15 14 13 13 12 12 12 13 14 14 14 14 14 14 15
8 8 8 10 9 9 8 9 9 10 9 6 5 5 5 4 5 5 4 6 6 5 4 4 4 4 5 4 5 4 3 3 2 3 3 4 5 10 11 12 13 13 14 15 15 15 15 15 15 16 16 13 7 7 7 6 7 9 8 7 6 6 6 6 6 6 6 5 5 11 15 15 14 14 13 12 12 12 13 14 13 13 14 14 14
12 11 11 8 9 9 9 8 10 10 10 7 6 6 5 4 5 5 5 6 6 5 5 4 4 5 5 5 5 5 4 3 5 8 6 4 5 7 9 9 11 11 12 8 11 12 14 12 13 13 8 6 6 6 6 6 7 7 6 6 6 6 6 6 6 6 6 5 5 12 15 15 15 14 13 13 13 13 13 13 14 13 13 13 14
11 7 6 9 10 10 9 9 9 9 10 8 7 7 6 6 6 6 6 6 6 6 5 4 4 5 5 5 5 5 4 4 4 5 4 4 4 4 4 5 4 5 7 6 6 6 6 6 5 6 6 6 7 7 6 6 6 6 6 6 7 6 6 6 6 6 6 6 6 12 15 16 16 15 15 14 14 13 13 13 13 14 14 13 13
6 9 11 10 11 10 10 9 9 9 10 9 9 8 8 8 7 7 6 6 6 6 5 5 4 4 4 4 5 6 5 5 5 4 3 3 4 4 4 4 5 5 4 6 6 5 5 5 5 6 6 6 6 6 5 5 6 6 6 6 6 6 6 6 6 6 6 6 7 13 15 16 17 17 16 16 15 15 14 14 14 14 14 14 14
11 13 11 10 10 10 10 10 10 10 10 9 7 7 8 7 7 7 8 7 6 6 6 6 5 4 4 4 6 6 5 6 5 4 4 3 4 4 5 5 5 6 5 6 6 5 5 5 5 4 4 4 5 4 4 4 4 5 6 6 6 6 6 6 6 6 6 6 7 13 14 16 17 16 17 17 16 16 15 15 14 14 14 14 14
9 10 11 11 11 13 12 12 11 11 9 9 9 8 7 7 7 7 7 7 8 7 6 6 5 5 4 5 6 6 6 6 5 5 3 3 4 4 4 5 6 6 6 6 6 5 5 5 4 4 5 5 5 5 4 4 5 4 5 6 6 6 6 6 6 6 6 6 6 9 13 15 16 16 17 16 17 16 16 16 15 15 15 15 15
12 12 11 12 13 13 12 13 11 12 10 10 9 8 7 7 7 7 8 7 7 7 7 6 6 5 4 4 6 7 6 6 6 5 3 4 4 4 5 6 6 6 5 5 4 4 4 3 4 3 4 5 5 6 6 6 5 5 6 6 6 6 6 6 6 7 6 6 7 7 13 15 16 16 17 17 16 16 16 16 16 15 15 15 15
16 13 13 13 12 13 14 15 13 12 11 10 9 9 8 8 8 8 8 7 7 7 7 6 6 6 5 4 6 6 6 7 6 5 6 4 4 4 4 5 6 5 5 5 3 3 3 4 4 3 4 5 6 6 6 6 6 6 6 7 7 6 6 7 7 7 6 6 6 6 10 13 15 17 17 17 16 16 16 15 15 15 14 14 14
12 14 13 12 12 13 14 14 13 11 9 10 9 10 8 9 8 7 7 8 8 8 7 7 6 6 6 5 5 6 6 6 6 6 5 5 3 4 4 5 5 4 4 4 3 3 4 4 3 4 5 5 6 6 6 6 6 6 6 6 7 6 6 6 7 7 7 7 6 5 6 10 12 14 15 15 15 15 15 15 15 15 15 15 15
15 16 13 11 12 15 15 14 13 12 11 10 9 9 9 9 8 7 7 7 8 7 7 7 6 6 5 5 6 6 6 6 6 6 6 5 4 4 4 5 5 4 4 4 4 3 3 3 4 3 4 4 5 5 5 5 6 6 6 6 6 6 7 7 7 7 7 7 7 7 7 8 9 13 14 15 15 14 14 14 15 15 15 15 15
12 14 13 13 16 15 14 14 13 12 12 12 11 9 9 8 9 8 7 7 8 7 7 7 7 6 5 5 6 6 5 6 6 6 5 5 4 4 4 4 4 5 4 3 3 3 3 4 4 4 5 5 5 5 4 4 5 6 6 6 6 7 7 6 7 7 7 6 7 6 6 7 7 9 11 12 13 14 14 14 14 14 14 14 15
11 10 12 16 13 10 10 10 13 14 13 10 9 9 9 8 7 7 7 8 7 7 7 7 7 6 6 5 5 5 6 5 6 5 6 6 5 4 4 4 4 4 3 3 3 3 5 5 4 5 5 4 5 5 6 6 5 5 5 5 6 6 6 7 7 7 6 6 5 5 6 6 6 6 6 9 11 12 14 14 14 14 14 14 15
8 10 17 17 14 13 11 10 13 13 12 11 11 10 9 9 8 8 8 8 7 7 7 7 7 6 6 6 5 6 6 5 4 6 6 5 5 5 5 4 4 3 3 3 3 4 4 3 2 4 3 4 3 4 4 5 6 7 6 6 7 7 7 8 8 7 6 6 5 5 6 6 6 6 6 6 7 9 12 14 14 14 14 14 15
14 14 12 12 14 13 13 12 13 14 13 12 10 10 10 9 8 8 8 7 7 7 7 8 7 6 6 6 5 6 6 6 5 5 6 5 6 6 5 4 4 3 3 3 3 3 2 2 2 3 3 4 4 5 4 5 6 7 7 7 6 7 7 8 8 7 6 5 5 5 6 6 7 7 7 7 6 6 11 12 14 14 14 14 16
14 13 14 14 14 14 14 14 16 16 14 12 10 8 9 9 9 9 9 8 8 7 7 7 7 7 7 6 6 6 6 6 6 5 6 6 6 6 5 5 4 3 3 3 2 1 1 1 2 2 2 3 4 5 6 5 6 6 6 6 6 6 8 8 9 8 7 6 6 5 5 6 6 7 6 6 6 6 8 11 13 14 13 12 15
12 13 14 16 16 14 14 13 12 13 12 12 11 10 9 8 7 7 7 8 7 7 7 8 8 7 7 7 7 7 7 6 6 6 6 6 6 6 5 4 4 3 4 3 1 1 2 3 1 1 1 1 3 4 6 6 5 6 7 8 8 7 8 9 8 7 6 7 6 5 5 5 5 6 6 6 6 6 6 8 10 9 7 9 14
12 14 14 13 12 12 11 12 13 13 11 10 9 8 8 6 5 7 7 6 6 6 7 8 8 8 8 8 8 8 8 7 7 6 7 7 6 5 5 4 4 4 4 3 1 1 2 2 2 2 1 2 3 3 5 6 7 7 8 9 7 8 8 8 7 5 5 5 6 5 3 5 4 4 4 5 5 5 6 5 4 4 5 8 12
12 13 14 13 13 12 10 10 12 12 10 9 9 9 8 9 9 6 6 7 7 7 7 8 7 8 8 9 9 8 8 8 8 7 7 7 6 5 4 4 4 4 4 3 2 2 2 1 1 2 3 3 2 3 4 6 7 7 8 8 7 8 9 9 7 4 4 4 4 3 5 5 4 4 5 5 6 5 5 5 4 5 5 6 10
12 14 15 15 15 16 14 15 13 13 12 12 12 12 12 8 6 11 11 10 10 8 8 8 8 8 9 9 9 8 8 8 8 7 7 7 6 5 5 4 4 4 4 4 3 3 2 1 1 1 1 3 2 3 6 6 7 6 4 7 7 6 9 8 4 3 2 3 4 7 6 5 4 4 4 5 5 5 5 6 6 5 4 4 6
12 13 16 16 14 15 17 15 12 14 14 15 13 12 13 14 14 13 10 10 10 10 10 9 9 7 9 9 9 8 9 8 8 7 7 7 7 6 5 5 5 5 4 4 4 3 1 1 0 1 1 1 1 2 5 5 5 7 10 11 2 3 6 1 1 1 6 9 8 6 5 3 5 5 5 5 6 5 6 6 5 5 5 6 6
16 17 15 15 15 15 15 14 14 14 13 13 12 13 10 8 9 7 10 7 4 4 5 6 7 8 9 9 8 9 9 8 8 8 8 7 7 6 6 6 5 5 5 4 4 3 3 2 2 1 1 1 1 1 1 4 2 5 6 2 8 11 1 4 2 6 11 8 4 3 3 3 5 4 5 5 5 6 5 5 5 7 7 6 6
12 11 14 17 15 15 14 15 14 14 13 13 12 9 8 5 4 5 4 4 5 6 5 5 6 7 8 8 8 9 9 9 9 8 7 7 8 7 6 6 6 5 6 5 4 3 3 2 1 1 1 1 2 2 1 3 2 4 6 2 3 1 9 5 14 13 6 3 1 4 4 6 5 5 5 5 6 6 6 6 7 7 6 6 5
14 16 16 16 13 17 16 16 14 15 13 12 12 9 8 6 6 6 5 5 5 5 5 6 7 7 7 9 11 9 9 9 8 8 8 9 7 7 7 6 6 5 6 6 5 5 4 3 3 3 2 1 2 1 1 2 3 0 1 3 4 3 2 5 9 12 6 8 9 9 7 5 5 5 5 6 6 6 7 6 7 5 6 5 6
15 16 16 17 15 14 14 14 12 12 13 13 13 11 12 12 11 10 11 8 8 10 13 15 12 13 14 8 7 8 9 8 8 8 8 8 8 7 6 6 6 6 6 6 5 4 4 3 4 3 2 3 2 1 2 1 1 2 2 3 4 4 5 5 5 7 3 11 11 9 6 4 4 6 6 7 7 7 6 7 5 6 6 6 6
16 13 13 15 15 15 15 16 14 12 12 13 14 12 12 12 15 15 14 15 14 11 9 9 11 9 7 10 10 8 9 9 8 8 8 8 8 7 7 6 6 6 4 5 5 5 5 4 3 2 3 3 3 1 3 4 4 2 2 2 3 3 3 3 4 7 14 1 1 4 5 6 7 8 9 6 7 7 6 6 6 6 6 5 5
14 13 13 13 16 15 15 15 12 12 12 12 15 15 14 14 13 13 12 13 14 13 12 11 9 7 9 9 8 8 8 8 9 8 9 8 8 8 7 7 7 6 6 6 6 5 4 2 2 2 2 4 4 3 3 1 2 4 1 3 3 2 2 3 4 5 7 15 9 2 4 8 7 8 8 11 11 7 7 6 7 7 6 6 6
11 14 14 14 12 12 13 13 14 13 13 15 16 16 14 14 14 12 12 10 10 8 7 7 8 8 10 8 8 8 8 8 8 9 8 8 8 8 8 7 7 7 6 6 5 5 5 4 2 2 2 2 3 2 2 3 3 5 2 2 1 3 3 3 4 2 5 8 17 7 9 3 6 9 12 11 7 6 8 7 7 8 8 8 8
11 10 10 11 12 11 13 15 15 14 13 15 16 16 15 13 14 14 15 11 8 7 8 9 9 9 11 10 9 9 9 8 8 8 8 8 8 8 8 8 8 7 6 6 5 5 4 4 3 3 2 2 2 3 4 4 4 3 3 3 2 2 3 3 2 2 3 6 13 16 9 16 17 4 6 10 11 7 6 9 8 9 8 7 6
8 10 11 12 12 13 14 16 17 13 14 16 16 17 15 14 15 15 16 14 12 11 10 10 9 9 11 11 10 9 8 9 8 8 8 8 8 8 8 7 7 7 7 6 6 6 5 4 3 3 3 3 3 3 3 3 3 3 3 4 6 5 6 4 5 4 3 7 10 15 14 12 13 19 5 8 5 8 10 8 9 9 6 7 6
Wind_Direction
94 91 348 18 74 86 89 82 80 79 78 76 74 75 80 81 81 82 81 81 82 78 81 77 75 74 72 73 78 80 81 81 86 80 79 74 72 70 65 59 52 46 50 48 45 43 35 42 47 53 52 49 48 46 42 38 32 30 26 24 21 20 20 18 14 9 360 352 345 341 334 323 318 314 313 309 338 16 44 23 8 5 14 333 9
158 128 14 29 71 75 80 83 84 84 83 86 87 91 87 86 85 83 82 84 85 83 78 82 85 81 84 78 83 78 78 75 77 80 76 71 66 61 60 56 47 45 53 52 48 47 56 61 62 60 54 48 45 45 46 38 33 29 25 23 21 19 17 16 14 9 0 349 342 334 328 322 317 315 316 323 7 21 56 39 16 8 340 338 6
134 109 95 52 81 81 77 76 81 87 92 91 90 90 87 82 86 82 81 82 85 84 83 82 83 83 81 76 77 83 82 82 75 74 71 64 56 53 53 57 56 52 50 47 57 54 52 60 65 58 57 50 45 43 42 41 37 31 27 25 22 22 19 16 14 8 356 348 339 335 331 326 319 319 314 351 40 44 61 48 23 1 326 350 355
117 143 108 51 62 98 96 90 83 82 82 86 91 89 89 87 86 86 88 88 87 80 78 74 72 71 70 69 72 74 75 73 69 64 62 62 59 51 47 48 53 55 54 51 51 63 57 58 59 59 55 51 48 43 40 40 41 35 29 27 27 26 23 17 10 4 354 342 334 337 335 335 324 319 4 87 57 56 60 46 27 10 3 357 350
132 149 120 74 39 103 105 100 92 83 82 84 83 89 89 85 84 83 82 84 89 91 84 79 79 78 75 75 75 72 69 66 54 55 59 57 55 52 45 40 44 45 49 50 47 57 60 56 61 55 48 46 47 44 42 40 41 39 31 26 26 23 19 11 3 355 346 340 333 341 335 334 316 333 83 60 53 73 71 37 25 4 2 4 359
143 148 119 80 50 94 117 109 102 96 93 90 83 84 83 83 84 80 77 76 80 85 78 76 77 77 78 76 74 71 72 70 66 60 57 56 51 49 48 42 40 39 41 37 42 45 46 50 51 50 41 39 38 37 32 36 36 40 33 25 21 17 13 8 360 350 341 340 343 339 330 327 313 16 24 21 50 83 63 45 33 24 19 21 15
128 134 110 100 68 106 106 113 113 110 106 97 91 85 86 85 85 85 82 77 77 80 78 75 74 74 74 73 71 70 71 70 68 65 63 63 61 56 53 52 51 48 52 45 41 44 44 50 57 57 46 41 39 37 32 31 29 31 28 20 15 12 9 5 359 351 344 344 342 337 330 325 358 21 354 349 12 49 48 39 28 19 18 9 4
111 112 108 104 108 105 118 118 115 116 112 101 97 96 96 94 92 90 87 87 83 83 83 79 77 74 72 71 69 69 69 68 67 65 65 64 63 60 56 52 52 54 55 53 50 48 46 46 52 58 55 47 43 42 40 37 34 33 31 22 16 11 8 2 359 355 347 348 342 341 342 332 353 351 337 351 350 46 45 40 30 21 11 2 351
119 115 110 112 107 117 125 126 123 120 114 107 102 100 97 94 91 88 87 85 83 83 83 82 78 76 74 72 71 70 69 68 66 63 61 59 58 58 58 55 50 47 48 51 51 50 48 48 48 47 48 43 40 39 37 37 37 35 30 26 19 12 6 1 356 357 352 348 342 340 339 342 350 351 1 15 29 53 54 51 39 26 11 353 333
116 111 113 115 126 125 127 125 121 114 111 107 104 102 99 95 93 91 89 85 84 82 81 79 78 76 75 75 74 74 72 69 66 62 59 56 54 52 51 52 50 47 44 43 47 46 46 46 47 44 41 38 34 32 30 28 30 28 25 22 18 13 6 359 354 352 351 342 340 340 335 338 348 356 341 358 12 23 73 73 59 32 12 357 345
116 110 105 124 134 123 121 117 114 110 107 107 107 106 105 104 102 100 97 95 93 89 86 84 80 77 75 75 74 73 73 72 69 66 63 60 57 54 53 50 49 47 45 43 42 44 44 41 41 40 38 33 29 27 24 23 22 23 18 17 14 11 6 357 353 342 340 338 338 333 330 333 338 335 328 336 353 25 79 59 31 20 15 5 355
120 117 105 96 124 121 119 120 120 120 120 120 120 116 113 113 109 106 103 102 99 96 93 89 86 83 80 79 76 74 73 71 69 66 63 60 57 54 53 51 50 49 47 44 42 42 41 39 36 35 33 30 27 25 22 20 20 21 15 11 8 5 2 355 350 337 327 329 329 322 323 328 335 324 327 332 339 352 30 20 18 17 10 5 356
129 122 116 97 118 133 134 132 133 133 133 130 126 121 119 116 113 110 108 105 103 100 98 95 93 91 88 85 82 79 77 74 71 67 63 60 57 54 50 49 48 48 46 45 42 42 41 39 35 32 29 26 23 22 23 24 25 20 13 7 2 358 355 351 344 334 325 323 319 321 323 328 330 327 338 338 335 338 356 9 8 7 5 358 351
136 134 131 129 136 141 140 141 139 137 134 131 125 123 121 119 118 115 113 109 106 105 103 101 99 96 94 91 88 84 81 79 76 72 68 64 61 57 53 51 49 49 47 45 44 42 41 39 35 31 29 25 23 23 26 28 25 19 13 8 3 357 352 346 342 337 324 316 313 311 314 316 314 326 338 339 341 344 351 355 355 354 352 349 345
142 144 144 134 124 131 139 138 138 134 131 128 128 129 128 124 120 118 116 115 112 110 107 104 101 99 96 93 90 87 84 82 79 76 72 67 63 60 56 52 49 47 45 44 42 41 41 39 37 34 32 29 29 30 29 27 23 16 10 6 2 359 352 341 341 335 328 319 312 316 312 326 346 356 353 350 348 349 350 350 350 352 350 349 345
144 144 137 127 125 116 119 133 132 131 131 131 133 133 130 127 123 120 118 115 113 110 107 104 101 97 95 93 90 88 85 81 78 74 69 65 60 57 54 50 47 43 40 38 36 35 34 33 34 34 33 33 33 35 34 28 24 18 10 6 3 2 359 359 349 344 335 330 329 343 349 360 359 0 7 1 355 353 353 352 352 349 347 345 344
141 141 136 143 142 137 132 125 126 124 124 130 133 133 131 128 124 121 117 114 111 108 105 103 100 97 93 90 87 82 79 75 71 68 63 59 54 51 49 48 46 41 38 35 32 31 29 27 27 28 29 31 32 34 30 28 28 22 16 11 11 15 11 8 5 357 348 346 355 3 354 360 358 358 3 4 6 6 5 2 358 356 352 347 345
142 145 149 154 154 152 146 135 113 108 113 125 133 134 132 130 126 121 118 114 110 108 106 105 102 98 93 87 82 78 73 70 66 62 58 53 48 45 45 44 42 40 37 34 32 30 28 26 25 26 26 27 26 25 23 24 23 22 19 17 19 17 12 13 6 356 356 356 357 360 355 355 0 355 358 358 358 358 357 355 355 353 351 350 346
148 154 158 160 165 160 158 147 132 125 122 123 127 135 134 131 128 124 119 114 111 108 105 102 101 99 93 86 80 76 72 68 63 60 57 53 49 40 46 45 44 43 41 39 36 35 33 30 29 28 26 24 22 20 17 18 18 18 17 18 20 15 10 9 4 358 356 358 356 359 345 359 359 357 358 357 353 352 352 351 348 346 342 339 338
159 163 166 171 166 164 164 157 145 140 137 138 138 136 139 138 133 127 121 115 111 106 103 99 92 87 92 90 83 71 66 64 68 62 62 59 54 49 53 52 48 49 45 43 40 39 37 35 33 32 29 26 21 16 12 12 12 12 13 13 15 12 9 5 2 1 358 353 356 353 349 360 358 356 355 353 350 348 347 345 343 341 338 336 333
180 182 174 173 171 166 168 163 157 149 147 148 150 147 150 139 127 123 120 118 115 111 106 101 92 86 95 98 88 82 77 74 74 78 80 91 75 57 60 61 56 54 48 44 41 41 37 36 34 30 27 24 18 11 4 3 4 6 5 4 7 8 4 5 3 358 358 352 354 344 351 354 355 354 352 351 348 345 344 342 339 338 337 335 333
184 189 190 174 171 175 171 169 158 155 154 156 160 161 151 137 133 122 120 118 115 109 104 106 97 83 106 103 112 115 113 117 111 110 121 93 73 82 64 64 59 56 50 44 42 40 37 35 33 29 24 18 13 8 0 355 352 353 355 357 0 0 358 357 356 354 354 347 352 339 350 349 349 349 349 349 348 345 341 339 337 335 333 332 330
197 192 194 182 176 171 170 167 164 158 154 162 164 166 157 152 145 145 140 133 128 121 124 114 102 111 122 119 121 131 135 135 138 150 120 110 78 71 68 64 59 55 50 44 40 38 36 32 31 27 20 14 12 7 1 356 350 347 349 351 352 352 351 351 348 347 344 339 345 336 345 344 344 344 343 345 344 343 339 335 334 332 330 328 326
195 190 183 179 173 173 176 167 163 160 154 166 165 170 171 163 162 158 146 138 132 133 132 131 121 124 132 135 127 127 116 122 96 91 82 75 67 64 64 62 55 50 52 45 36 30 29 24 26 27 19 12 9 9 4 357 354 349 348 350 346 343 348 343 341 334 332 331 330 328 338 338 338 337 338 337 337 338 336 335 333 332 331 330 327
189 171 173 185 181 174 171 170 165 164 159 166 170 175 174 163 168 166 155 146 140 135 139 137 133 131 140 145 137 125 121 108 98 93 95 92 85 81 71 68 66 54 54 51 42 28 25 20 17 20 19 14 11 5 3 359 353 349 351 348 346 343 344 343 336 332 327 327 320 323 330 332 332 332 332 332 332 333 331 331 330 330 330 330 328
158 180 190 185 185 177 173 170 167 170 170 170 175 175 168 171 175 174 163 161 149 148 145 145 140 141 147 155 125 121 121 109 100 103 104 108 99 96 88 89 72 65 57 57 45 34 24 21 17 20 14 14 10 1 353 355 348 345 346 346 343 341 345 338 337 332 327 326 321 321 324 327 327 328 328 328 329 328 329 330 330 329 329 328 328
184 195 185 186 181 180 174 170 173 172 176 175 171 174 177 180 175 172 164 167 160 150 152 149 151 151 145 146 128 127 122 114 106 109 102 95 84 82 76 76 76 63 57 63 47 33 27 17 13 14 11 12 1 354 345 344 345 342 341 339 339 337 337 334 329 326 323 322 318 318 319 322 324 324 325 325 325 327 328 328 328 329 329 328 328
184 188 186 183 181 184 175 173 176 174 177 177 174 177 178 176 174 165 162 164 153 153 153 152 143 137 137 130 131 132 129 116 115 109 116 92 84 83 76 71 71 62 59 63 53 32 24 15 6 359 6 1 354 345 343 340 341 343 339 334 331 332 329 328 322 319 317 314 312 313 314 319 322 323 323 323 326 326 326 328 329 331 331 332 332
191 190 184 182 186 180 174 178 176 178 178 174 177 176 173 171 172 166 166 166 154 155 154 143 140 142 129 129 131 129 123 119 117 122 112 94 83 81 78 79 76 68 66 56 59 40 22 9 1 358 0 358 349 344 343 341 343 344 346 333 330 328 329 322 317 313 311 311 313 309 312 317 320 322 323 326 326 326 328 329 332 333 333 333 333
195 183 181 189 180 177 178 180 178 178 178 172 176 172 174 172 175 171 170 160 159 156 148 145 150 141 144 131 131 133 133 130 124 122 109 103 91 84 82 83 83 79 71 60 47 50 22 5 3 1 5 360 355 341 348 340 343 345 342 335 329 328 324 321 320 318 313 311 305 303 307 311 315 320 323 323 325 327 329 331 333 334 334 334 335
181 188 187 184 178 175 182 180 177 178 174 177 175 175 169 174 174 168 166 161 159 152 148 149 149 150 156 141 131 130 132 125 123 126 115 115 106 101 95 89 81 72 72 52 27 35 24 19 1 1 10 4 353 346 349 343 338 336 333 329 321 320 317 314 313 313 314 313 311 307 305 306 309 312 315 318 322 326 329 330 332 335 335 336 336
186 192 187 174 174 183 179 179 177 178 175 178 175 172 175 173 169 167 168 159 155 153 148 149 153 154 155 146 134 132 128 126 128 126 124 121 119 107 102 91 90 74 64 52 32 34 40 15 15 24 15 9 354 349 343 344 331 322 323 319 315 316 311 312 310 310 309 312 315 317 315 312 309 309 310 312 317 322 324 329 332 334 334 336 337
197 185 175 173 182 179 177 179 175 178 179 179 179 176 171 168 167 174 165 160 158 152 151 152 152 156 153 149 139 135 131 134 137 132 127 127 126 114 97 97 96 84 65 65 66 39 34 21 14 18 13 6 358 341 337 329 322 316 319 312 316 308 302 304 299 300 303 307 311 312 308 306 304 307 306 305 308 313 319 325 329 329 331 335 337
184 177 169 183 180 176 175 173 177 179 182 178 176 173 174 169 166 166 164 160 160 155 155 148 150 152 151 152 142 134 136 139 137 129 125 126 120 118 115 105 111 99 87 78 57 49 35 32 11 23 4 7 351 336 334 328 313 306 304 300 300 292 299 297 292 291 293 297 300 298 297 293 293 293 295 298 300 304 309 317 323 327 330 334 337
168 177 184 182 171 174 173 177 178 178 178 179 178 177 173 166 165 166 168 165 160 157 154 150 150 154 148 151 142 137 139 141 139 131 129 124 122 118 114 144 130 112 89 79 75 46 58 40 27 17 3 357 337 319 322 310 313 313 308 304 301 303 299 296 295 294 293 296 295 294 297 301 303 301 301 300 300 300 300 304 313 321 327 333 334
184 185 179 168 176 175 175 173 175 177 182 179 178 175 173 168 166 165 162 165 160 161 159 157 152 152 151 154 147 140 141 141 140 135 130 130 131 131 147 148 128 106 100 72 72 67 59 41 7 57 22 336 334 316 314 305 302 300 300 301 294 299 298 295 293 293 294 299 294 299 304 307 306 305 302 303 300 296 294 297 301 312 320 326 329
185 174 175 175 174 175 176 173 178 178 177 175 170 169 167 167 167 167 167 163 163 164 159 152 152 155 159 158 156 147 146 144 144 141 137 140 136 141 157 141 138 128 108 89 76 112 82 42 8 46 63 319 316 307 305 299 295 288 286 286 288 296 301 300 295 297 307 298 296 298 303 298 297 294 292 290 292 291 296 294 296 303 314 320 326
182 177 176 174 176 176 178 175 175 174 174 172 169 166 168 161 160 163 165 167 168 164 159 154 159 161 160 161 160 152 152 152 152 148 143 148 146 146 153 143 133 126 110 95 96 53 65 91 43 315 28 305 292 298 303 303 298 298 301 303 307 306 295 290 286 296 292 287 287 286 283 285 290 289 294 298 294 296 295 296 304 313 317 314 325
178 175 173 175 169 172 172 174 171 173 170 166 159 156 154 145 144 155 163 168 170 169 163 162 161 162 166 163 159 156 157 158 159 156 150 148 147 149 145 154 137 130 114 106 77 55 70 75 61 312 298 278 271 286 295 301 311 308 306 304 299 287 278 275 284 282 272 268 276 285 301 284 279 286 295 295 297 297 295 292 289 294 302 319 319
174 172 171 171 172 170 170 168 175 171 162 160 157 158 159 162 160 159 169 183 176 170 175 170 162 165 167 165 164 160 161 161 163 161 152 150 150 157 155 151 143 132 128 120 144 115 104 55 320 289 305 309 300 295 312 326 311 306 296 289 276 279 273 269 277 254 273 278 286 307 308 292 299 305 303 296 300 303 301 296 302 308 315 312 311
171 171 170 176 174 173 169 178 177 171 167 168 172 168 169 164 170 182 182 180 178 173 174 172 173 169 164 164 164 162 162 162 165 159 156 150 148 150 151 160 150 146 145 162 161 157 158 164 235 300 312 341 332 358 335 338 327 311 251 266 279 248 260 267 244 278 278 302 307 326 307 314 311 312 300 314 317 309 304 307 306 305 305 305 303
182 172 177 177 173 173 179 177 174 179 180 178 175 178 180 181 176 184 177 178 171 173 177 183 177 166 162 165 165 164 164 166 165 160 155 151 151 158 162 170 161 162 160 151 149 150 146 216 189 351 316 333 313 6 334 3 9 1 332 329 238 243 253 243 235 87 345 316 317 312 310 317 312 305 311 318 302 298 299 298 297 302 304 300 291
175 179 176 170 176 180 184 177 181 181 184 179 177 185 181 178 178 174 174 172 190 173 163 166 156 161 169 168 165 166 166 168 166 162 156 158 160 160 173 170 165 155 137 137 138 144 156 179 182 182 305 331 299 280 356 64 319 315 276 318 337 356 329 7 348 351 310 308 306 311 303 307 292 290 292 295 291 291 289 288 295 295 289 284 282
174 176 176 178 179 184 183 181 183 183 182 185 184 176 169 154 133 135 144 148 170 155 142 144 153 151 170 173 175 169 169 167 167 162 158 159 162 166 166 163 168 157 151 149 150 162 152 172 176 185 152 356 18 313 46 43 51 342 358 22 287 80 325 337 335 315 323 282 233 284 296 306 298 298 300 284 278 276 275 283 281 280 278 280 280
181 181 180 182 184 186 185 182 181 185 184 179 176 160 144 135 121 110 114 96 86 135 142 170 177 173 164 184 185 173 169 167 167 165 160 163 163 164 164 167 160 160 148 152 159 167 168 185 181 147 152 181 290 267 314 59 351 308 167 2 350 9 232 299 327 293 330 338 328 315 314 311 302 289 280 275 276 276 283 280 278 275 279 281 284
186 188 182 184 182 183 181 182 182 183 183 179 172 166 171 165 158 157 170 176 175 175 189 184 180 184 190 174 164 174 170 167 169 165 163 160 164 166 165 161 162 159 154 160 158 146 166 173 190 169 170 176 187 263 283 335 312 310 225 177 177 226 308 314 348 301 332 288 278 303 312 300 287 286 278 284 280 281 272 277 276 280 283 283 282
196 179 182 186 184 180 182 182 182 183 180 177 174 172 176 182 182 183 181 184 184 199 190 184 184 182 160 174 177 173 173 167 172 168 165 165 163 166 165 164 163 159 159 153 159 167 175 181 173 149 175 159 136 230 275 290 344 301 258 238 266 279 281 327 269 306 312 171 95 323 303 298 290 281 282 266 274 279 279 282 286 287 285 285 290
182 177 184 184 185 182 181 182 182 182 181 176 180 182 183 185 187 189 189 193 194 188 182 183 177 164 168 174 167 175 173 172 170 171 167 166 164 165 164 163 162 167 162 168 168 170 162 175 162 166 151 153 157 191 251 226 257 284 13 328 309 297 284 257 242 257 275 301 300 276 260 265 270 279 281 290 284 276 287 287 288 294 295 293 297
178 185 186 185 183 179 179 180 185 183 183 181 183 188 189 187 188 186 194 201 191 181 170 162 166 166 168 167 172 173 174 176 173 169 169 165 167 167 165 164 165 171 168 167 164 157 165 170 172 146 156 153 154 180 182 228 205 238 301 311 320 278 294 271 283 268 283 305 295 303 302 240 237 268 276 269 266 288 289 280 288 290 292 295 296
186 184 180 177 182 176 181 183 189 187 185 185 187 189 190 185 190 193 193 189 176 160 165 169 171 169 174 176 175 175 177 174 176 171 167 170 167 166 166 168 169 169 167 170 160 156 162 166 174 182 172 182 186 178 202 212 204 223 215 241 263 309 310 298 251 301 274 235 274 299 302 308 304 245 261 277 276 261 259 287 285 281 284 284 285
184 181 183 183 180 182 184 187 192 186 187 188 186 190 190 191 195 193 192 186 180 169 169 178 174 174 180 179 178 180 176 179 171 175 171 169 171 170 168 170 168 168 165 163 166 162 165 164 170 168 179 190 216 215 232 230 214 227 229 207 229 230 237 260 286 301 295 295 301 290 299 292 287 302 233 228 255 269 277 265 267 271 271 277 278